Tracking 27420 objects as of 28-May-2023
HD Live streaming from Space Station
objects crossing your sky now

STARLINK-5523

Track STARLINK-5523 now!
10-day predictions
STARLINK-5523 is classified as:


NORAD ID: 56470
Int'l Code: 2023-064Y
Perigee: 363.9 km
Apogee: 368.5 km
Inclination: 70.0 °
Period: 91.7 minutes
Semi major axis: 6737 km
RCS: Unknown
Launch date: May 10, 2023
Source: United States (US)
Launch site: AIR FORCE WESTERN TEST RANGE (AFWTR)
Your satellite tracking list
Your tracking list is empty




NASA's NSSDC Master Catalog

Two Line Element Set (TLE):
1 56470U 23064Y   23148.58334491  .00001441  00000-0  13742-4 0  9993
2 56470  69.9985 195.0941 0003417 266.1476 247.8233 15.69939442  3189
Source of the keplerian elements: AFSPC